Dewpoint
67 71 76 75 75 75 74 74 74 72 72 73 72 71 71 70 72 73 73 72 70 69 69 69 70 71 70 68 67 67 66 67 68 67 67 67 68 67 68 67 68 61 66
66 68 76 76 75 74 74 74 74 73 72 72 72 71 71 70 71 72 73 71 70 69 69 69 70 70 69 68 67 67 67 68 66 67 66 67 69 67 66 67 66 62 65
66 66 72 76 75 75 75 74 74 73 71 71 72 71 70 70 70 71 73 72 71 69 69 69 70 70 70 68 67 67 68 68 66 65 65 63 63 68 66 65 67 66 66
66 67 70 76 76 76 75 75 75 73 72 71 71 71 70 70 70 71 72 72 71 69 69 69 70 69 69 67 66 67 67 65 65 66 62 60 58 68 66 66 66 66 65
67 67 70 76 77 76 76 75 75 74 73 72 72 72 71 71 70 69 71 72 71 69 68 69 69 69 68 67 66 66 65 64 64 64 62 64 61 65 65 64 65 65 65
66 68 74 77 76 76 75 74 74 74 73 72 72 72 72 72 70 69 70 72 71 70 69 68 69 68 68 67 65 66 64 64 65 62 62 62 65 64 65 64 65 65 65
66 68 71 76 76 75 75 74 74 74 73 73 72 73 73 72 72 71 70 72 71 70 69 68 68 68 67 68 66 66 64 63 60 61 61 61 64 64 63 63 64 64 64
66 68 69 75 76 76 75 75 75 74 74 73 73 73 73 73 73 72 71 71 71 71 70 68 68 67 68 69 67 66 64 63 60 60 61 62 64 63 63 64 64 64 64
67 69 69 70 73 76 76 75 75 74 74 74 74 74 73 73 73 73 73 71 71 72 71 70 68 67 68 69 67 67 65 63 60 59 59 60 64 63 62 62 63 63 64
68 69 69 70 70 70 70 75 75 74 74 74 74 74 73 73 73 72 72 72 71 71 72 71 70 68 67 68 68 67 66 65 60 61 62 62 64 62 62 62 63 63 63
66 68 68 69 70 70 70 71 74 74 74 73 72 73 72 69 67 69 70 72 72 71 71 71 71 70 69 68 68 69 67 60 60 60 61 64 63 62 62 62 63 63 63
59 60 61 65 69 70 71 72 72 72 71 70 70 68 66 65 64 66 69 71 72 71 71 71 71 70 69 63 63 68 63 60 59 60 60 65 63 62 61 60 62 62 62
55 58 58 60 63 68 71 72 74 74 70 70 69 69 68 66 65 66 67 69 68 70 67 68 69 68 65 62 62 61 61 59 59 60 62 66 64 61 61 60 61 62 61
52 54 56 58 59 61 66 67 71 71 72 71 69 70 69 71 66 65 65 67 67 65 64 65 68 67 66 63 61 61 59 59 59 60 62 66 65 63 62 61 61 60 61
45 47 49 51 54 57 58 62 64 65 68 69 70 71 72 69 69 70 67 70 68 67 67 65 66 66 64 62 61 61 60 58 59 61 62 66 65 65 62 62 61 60 61
38 39 40 42 46 49 52 56 59 60 61 63 69 70 71 71 69 69 68 68 67 71 70 68 65 64 64 63 61 61 61 59 60 62 65 67 65 65 63 62 61 61 61
32 33 35 36 39 43 46 48 54 57 59 59 61 64 66 68 69 68 68 69 67 71 70 69 65 63 63 64 64 63 63 60 63 63 65 66 65 65 64 61 61 61 60
31 31 33 33 34 37 38 39 44 51 56 58 58 59 61 63 65 68 69 68 70 70 70 69 65 63 65 63 64 64 63 60 62 64 64 65 63 64 64 63 61 60 59
36 35 37 37 36 38 38 37 38 43 47 51 56 56 58 60 61 64 66 67 68 69 68 67 66 65 66 66 66 65 62 62 63 63 64 64 64 64 64 64 61 61 60
34 35 36 37 37 39 41 39 37 37 40 43 49 53 56 56 58 59 61 65 67 67 67 68 66 66 67 65 65 64 64 64 65 65 64 64 63 63 63 62 60 61 60
32 36 37 38 38 39 38 38 39 38 39 42 42 48 48 54 58 59 60 61 61 66 66 66 65 65 65 66 63 62 62 64 64 65 65 64 63 63 63 62 62 62 60
29 32 34 35 38 39 40 40 40 39 39 44 48 49 48 49 55 58 60 60 62 63 64 65 65 64 64 64 62 60 57 58 59 61 63 62 62 63 62 61 61 61 61
30 33 35 37 38 39 42 43 44 44 43 41 44 46 48 50 54 57 59 60 60 62 63 64 64 64 62 62 61 59 57 55 56 57 56 58 59 59 59 59 59 60 60
32 36 36 38 38 38 40 40 41 41 43 44 45 46 48 49 52 55 58 59 61 62 62 63 64 64 64 60 63 61 58 57 55 52 54 54 55 55 56 56 57 57 58
33 36 37 38 38 37 38 39 38 38 39 40 42 44 45 48 51 55 56 56 58 60 62 62 63 63 64 62 61 62 60 57 56 54 50 50 52 52 53 54 55 56 56
33 36 37 37 36 36 38 39 39 39 39 40 41 41 42 43 47 53 55 56 57 58 60 61 63 63 63 63 62 61 59 58 56 55 52 51 48 49 51 52 53 54 57
Lifted_Index
-3 -4 -5 -5 -5 -4 -4 -4 -3 -3 -2 -2 -2 -1 -1 -1 -2 -2 -2 -2 -1 -0 0 0 -0 -1 -0 1 2 2 2 2 2 2 2 2 2 2 2 2 3 3 3
-2 -3 -4 -5 -4 -4 -4 -4 -3 -3 -2 -2 -2 -1 -1 -1 -2 -2 -2 -2 -1 -0 0 0 -0 -0 0 1 2 2 2 2 2 2 2 2 2 2 2 3 3 3 3
-2 -3 -4 -5 -5 -4 -4 -4 -4 -3 -2 -2 -2 -2 -1 -1 -1 -2 -2 -2 -1 -0 0 0 -0 -0 0 1 2 2 2 2 2 3 3 3 2 2 3 3 3 3 3
-2 -3 -4 -5 -5 -5 -5 -5 -4 -4 -3 -2 -2 -2 -2 -1 -1 -2 -2 -2 -1 -0 0 0 -0 -0 0 1 2 2 2 3 3 3 3 3 3 3 3 3 3 3 3
-3 -3 -4 -5 -6 -6 -5 -5 -5 -4 -4 -3 -3 -3 -3 -2 -2 -2 -2 -3 -2 -1 -0 -0 -0 -0 0 1 2 2 2 3 3 3 3 3 3 3 3 4 4 4 4
-3 -4 -5 -6 -6 -6 -5 -5 -5 -5 -4 -4 -4 -4 -3 -3 -2 -2 -2 -3 -2 -2 -1 -0 -0 -0 -0 1 1 2 2 3 3 3 3 3 3 3 4 4 4 4 4
-4 -4 -5 -6 -6 -6 -5 -5 -5 -5 -5 -4 -4 -4 -4 -4 -3 -3 -2 -3 -3 -2 -1 -1 -0 -0 -0 -0 1 1 2 3 3 3 3 2 3 3 4 4 4 4 4
-4 -4 -5 -6 -6 -6 -6 -5 -5 -5 -5 -4 -4 -4 -4 -4 -4 -4 -3 -3 -3 -3 -2 -1 -1 -0 -1 -1 0 1 2 3 3 2 2 2 2 3 3 4 4 4 4
-4 -4 -5 -5 -5 -6 -6 -5 -5 -5 -5 -5 -5 -5 -4 -4 -4 -4 -4 -3 -3 -3 -3 -2 -1 -1 -1 -1 -1 0 1 2 2 2 2 2 2 3 3 3 3 4 4
-4 -4 -5 -5 -5 -5 -5 -5 -5 -5 -5 -5 -5 -5 -5 -4 -4 -4 -4 -4 -4 -4 -3 -3 -2 -2 -1 -1 -1 -1 0 1 2 1 1 1 2 2 3 3 3 3 4
-4 -4 -4 -5 -5 -6 -6 -6 -6 -6 -6 -5 -5 -5 -5 -4 -4 -4 -4 -4 -4 -4 -4 -4 -3 -2 -2 -1 -1 -1 -0 1 1 1 0 1 1 2 3 3 3 3 3
-2 -2 -3 -4 -5 -6 -6 -6 -6 -6 -6 -6 -5 -5 -5 -4 -4 -4 -4 -4 -4 -4 -4 -4 -3 -3 -2 -2 -1 -1 -1 0 0 0 0 0 1 2 3 3 3 3 3
2 1 0 -1 -2 -4 -5 -6 -6 -6 -6 -6 -6 -5 -5 -5 -4 -4 -4 -4 -4 -4 -4 -3 -3 -3 -2 -2 -1 -1 -1 -0 0 -0 -0 -0 1 1 2 3 3 3 3
5 4 4 3 1 -0 -2 -4 -5 -6 -6 -6 -6 -6 -5 -5 -5 -4 -4 -4 -4 -4 -3 -3 -3 -3 -3 -2 -2 -1 -1 -0 -0 -0 -1 -0 0 1 2 2 3 3 3
7 6 6 5 4 3 2 -0 -2 -3 -3 -4 -5 -5 -5 -5 -5 -5 -5 -5 -4 -4 -4 -3 -3 -3 -3 -2 -2 -1 -1 -0 -0 -1 -1 -0 0 1 1 2 2 3 3
7 7 7 6 6 6 5 4 2 1 -0 -1 -2 -4 -5 -5 -5 -5 -5 -5 -5 -5 -4 -4 -3 -3 -3 -2 -2 -2 -1 -1 -1 -1 -0 0 1 1 1 1 2 2 3
7 7 7 8 8 8 7 7 6 4 3 1 0 -1 -2 -3 -4 -5 -5 -5 -5 -5 -5 -5 -4 -3 -2 -2 -2 -2 -2 -1 -1 -1 -1 0 1 1 1 1 2 2 3
8 8 9 10 10 10 9 9 8 7 5 4 3 2 1 -0 -2 -3 -4 -5 -5 -5 -5 -5 -4 -3 -3 -3 -2 -2 -2 -1 -1 -1 -1 -0 0 1 1 1 1 2 2
10 10 11 11 12 12 11 11 10 10 8 7 5 4 3 2 1 -0 -2 -3 -4 -5 -5 -5 -4 -3 -3 -3 -2 -2 -2 -1 -1 -1 -1 -1 -0 1 1 1 1 2 2
12 12 12 12 12 12 12 12 11 11 10 9 7 6 5 4 3 2 0 -2 -3 -4 -5 -5 -4 -4 -3 -3 -2 -2 -2 -1 -1 -1 -1 -1 0 1 1 1 1 2 2
13 12 12 12 12 12 12 11 11 11 10 9 8 7 6 5 3 2 1 -0 -1 -3 -4 -4 -4 -4 -3 -3 -2 -2 -1 -1 -1 -1 -1 -0 1 1 1 1 1 2 2
12 12 12 11 11 11 11 10 10 10 9 8 7 7 6 5 3 2 1 0 -1 -2 -3 -4 -4 -4 -3 -3 -2 -1 -1 -0 -0 -0 0 1 1 2 2 2 2 2 3
11 10 10 10 9 9 9 9 9 9 8 7 6 6 5 4 3 1 -0 -1 -1 -2 -2 -4 -4 -4 -3 -3 -2 -2 -1 0 0 0 0 1 2 2 2 3 3 3 3
8 8 8 8 7 8 8 8 8 8 7 7 6 5 4 3 2 -0 -1 -2 -3 -2 -2 -3 -4 -4 -4 -3 -3 -2 -1 -1 -0 0 0 1 2 2 2 3 3 3 3
6 6 6 6 6 6 7 7 7 7 7 6 6 5 5 3 1 -1 -2 -3 -3 -3 -3 -3 -4 -4 -4 -4 -3 -3 -2 -2 -1 -1 0 1 1 2 2 3 4 4 4
5 5 5 5 5 6 6 6 6 6 6 6 6 6 5 4 2 -1 -2 -3 -3 -3 -3 -3 -4 -4 -4 -4 -4 -3 -3 -2 -2 -1 -0 0 1 2 3 3 4 4 4